Location: Newark
(49.8753°N, 23.0797°E)
Time: 01:52:29
(UTC+00:00)

X-37B - Pass Details

Date: 24 June 2021
Orbit: 383 x 392 km, 45.0° (Epoch: 01 July)

Event Time Altitude Azimuth Distance (km) Brightness Sun altitude
Rises 21:10:29 0° 251° (WSW) 2,254 4.5 -14.6°
Reaches altitude 10° 21:12:39 10° 242° (WSW) 1,401 3.3 -14.7°
Enters shadow 21:15:02 31° 197° (SSW) 702 1.4 -14.9°
